Regional Weather Roundup
Issued by NWS

Home | Current Version | Previous Version | Text Only | Print | Product List | Glossary On
Versions: 1 2 3 4 5 6 7 8 9 10 11 12 13 14 15 16 17 18 19 20 21 22 23 24 25 26 27 28 29 30 31 32 33 34 35 36 37 38 39 40 41 42 43 44 45 46 47 48 49 50
000
ASUS43 KTOP 242259
RWRKS

WEATHER ROUNDUP FOR KANSAS
NATIONAL WEATHER SERVICE GOODLAND KS
600 PM CDT TUE MAY 24 2016

NOTE:  "FAIR" INDICATES FEW OR NO CLOUDS BELOW 12,000 FEET WITH NO
SIGNIFICANT WEATHER AND/OR OBSTRUCTIONS TO VISIBILITY.

KSZ001>006-013>018-027>032-041>047-250000-
NORTHWEST KANSAS

CITY           SKY/WX    TMP DP  RH WIND       PRES   REMARKS
GOODLAND       MOSUNNY   77  60  55 SE13G22   29.81F
HAYS           CLOUDY    79  63  57 E14G21    29.78F
HILL CITY      CLOUDY    75  65  70 SE13      29.80F
RUSSELL        MOSUNNY   77  66  68 E18       29.80F
$$

KSZ061>065-074>080-084>089-250000-
SOUTHWEST KANSAS

CITY           SKY/WX    TMP DP  RH WIND       PRES   REMARKS
DODGE CITY     TSTM      72  63  73 S20G44    29.74F
ELKHART          N/A     88  37  16 S12         N/A
GARDEN CITY    CLOUDY    90  39  16 SW20G30   29.71F
GREAT BEND     PTSUNNY   84  66  54 SE21      29.78F
LIBERAL        PTSUNNY   86  63  45 S23G30    29.73F THUNDER
$$

KSZ066>073-081>083-090>101-250000-
SOUTHEAST KANSAS

CITY           SKY/WX    TMP DP  RH WIND       PRES   REMARKS
CHANUTE        CLOUDY    80  72  76 SE9       29.89R
COFFEYVILLE    CLOUDY    79  70  74 S5        29.88F
HUTCHINSON     PTSUNNY   82  71  69 SE17G24   29.82F
MEDICINE LODGE   N/A     85  70  60 SE15G25   29.77F
NEWTON         PTSUNNY   81  68  65 S17       29.88F
PARSONS        CLOUDY    79  72  79 S6        29.90S
WICHITA INTL   MOSUNNY   83  71  67 SE20G25   29.83F
WICHITA JABRA  MOSUNNY   80  71  74 SE14      29.84F
WINFIELD       CLOUDY    81  68  64 SE18      29.85F
$$

KSZ007>012-019>026-033>040-048>060-102>105-250000-
NORTHEAST KANSAS

CITY           SKY/WX    TMP DP  RH WIND       PRES   REMARKS
CONCORDIA      SUNNY     79  63  57 S13       29.85S
EMPORIA        SUNNY     80  69  69 S16       29.87S
LAWRENCE       SUNNY     80  66  62 SE7       29.87S
MANHATTAN      SUNNY     83  65  54 S13       29.84F
OLATHE IND     SUNNY     79  67  66 S9        29.89F
OLATHE EXE     SUNNY     77  66  68 VRB6      29.89S
SALINA         SUNNY     82  68  62 SE12      29.83F
TOPEKA BILLARD SUNNY     81  65  58 S7        29.86S
TOPEKA FORBES  SUNNY     82  68  62 S10       29.86F
$$




USA.gov is the U.S. government's official web portal to all federal, state and local government web resources and services.